LRI4LW ELLX-ESGG

Flight info

Callsign LRI4LW
Flight time 1h 32m
Altitude 37000
Route DIK N853 ONUNE DCT ROBEG DCT HAM DCT BUMAB DCT ROKAM/N0452F380 L997 RISMA
Aircraft B738/M-SDE2E3FGHIRWXY/LB1

Departure

Time 2026-04-30 18:26
Airport Luxembourg-Findel International Airport (ELLX)

Arrival

Time 2026-04-30 19:58
Airport Göteborg Landvetter Airport (ESGG)
Time Latitude Longitude Altitude Speed Heading
2026-04-30 18:11 49.63631 6.22910 1217 ft 0 kts 60°
2026-04-30 18:13 49.63620 6.22878 1217 ft 4 kts 64°
2026-04-30 18:13 49.63608 6.22776 1217 ft 4 kts 130°
2026-04-30 18:14 49.63613 6.22768 1217 ft 0 kts 150°
2026-04-30 18:16 49.63609 6.22771 1217 ft 4 kts 150°
2026-04-30 18:17 49.63578 6.22799 1217 ft 6 kts 150°
2026-04-30 18:17 49.63537 6.22835 1217 ft 7 kts 150°
2026-04-30 18:17 49.63459 6.22811 1218 ft 7 kts 238°
2026-04-30 18:18 49.63434 6.22744 1218 ft 9 kts 240°
2026-04-30 18:18 49.63397 6.22646 1218 ft 11 kts 240°
2026-04-30 18:18 49.63358 6.22541 1218 ft 11 kts 240°
2026-04-30 18:18 49.63323 6.22439 1218 ft 11 kts 245°
2026-04-30 18:19 49.63291 6.22336 1218 ft 10 kts 245°
2026-04-30 18:19 49.63258 6.22229 1218 ft 13 kts 245°
2026-04-30 18:19 49.63211 6.22075 1218 ft 17 kts 244°
2026-04-30 18:19 49.63161 6.21915 1218 ft 16 kts 244°
2026-04-30 18:20 49.63111 6.21759 1217 ft 16 kts 244°
2026-04-30 18:20 49.63064 6.21606 1217 ft 15 kts 245°
2026-04-30 18:20 49.63019 6.21459 1217 ft 15 kts 244°
2026-04-30 18:20 49.62975 6.21319 1217 ft 14 kts 244°
2026-04-30 18:21 49.62933 6.21184 1217 ft 14 kts 244°
2026-04-30 18:21 49.62893 6.21056 1217 ft 13 kts 244°
2026-04-30 18:21 49.62854 6.20932 1217 ft 13 kts 244°
2026-04-30 18:21 49.62817 6.20811 1217 ft 12 kts 244°
2026-04-30 18:22 49.62765 6.20708 1217 ft 12 kts 223°
2026-04-30 18:22 49.62642 6.20544 1218 ft 12 kts 227°
2026-04-30 18:22 49.62581 6.20442 1218 ft 14 kts 229°
2026-04-30 18:23 49.62516 6.20323 1218 ft 15 kts 231°
2026-04-30 18:23 49.62462 6.20193 1219 ft 15 kts 241°
2026-04-30 18:23 49.62410 6.20046 1222 ft 15 kts 241°
2026-04-30 18:23 49.62354 6.19907 1224 ft 15 kts 237°
2026-04-30 18:24 49.62244 6.19610 1225 ft 15 kts 240°
2026-04-30 18:24 49.62170 6.19565 1224 ft 12 kts 152°
2026-04-30 18:24 49.62098 6.19633 1224 ft 12 kts 139°
2026-04-30 18:25 49.62091 6.19673 1225 ft 5 kts 73°
2026-04-30 18:25 49.62096 6.19688 1225 ft 0 kts 58°
2026-04-30 18:26 49.62345 6.20350 1219 ft 102 kts 60°
2026-04-30 18:26 49.62806 6.21574 1273 ft 155 kts 63°
2026-04-30 18:26 49.63349 6.22990 2089 ft 154 kts 62°
2026-04-30 18:27 49.64377 6.25715 3714 ft 150 kts 66°
2026-04-30 18:27 49.64897 6.27114 4128 ft 150 kts 66°
2026-04-30 18:28 49.66032 6.30197 5074 ft 191 kts 66°
2026-04-30 18:28 49.66730 6.32096 5246 ft 214 kts 65°
2026-04-30 18:28 49.69571 6.34367 6028 ft 266 kts
2026-04-30 18:29 49.71432 6.33561 6504 ft 289 kts 334°
2026-04-30 18:29 49.76079 6.27299 8973 ft 299 kts 317°
2026-04-30 18:30 49.79142 6.22827 10528 ft 307 kts 319°
2026-04-30 18:30 49.82525 6.18051 10991 ft 352 kts 319°
2026-04-30 18:31 49.84410 6.15493 11361 ft 366 kts 325°
2026-04-30 18:31 49.89126 6.12854 12808 ft 363 kts 359°
2026-04-30 18:32 49.94221 6.12863 14267 ft 370 kts
2026-04-30 18:32 49.96781 6.12936 14950 ft 374 kts
2026-04-30 18:32 50.02026 6.13042 16430 ft 380 kts
2026-04-30 18:33 50.04681 6.13073 17140 ft 383 kts
2026-04-30 18:33 50.10078 6.13113 18494 ft 391 kts
2026-04-30 18:33 50.12803 6.13128 19123 ft 394 kts
2026-04-30 18:34 50.15556 6.13143 19730 ft 397 kts
2026-04-30 18:34 50.21133 6.13173 20930 ft 403 kts
2026-04-30 18:34 50.23952 6.13189 21509 ft 406 kts
2026-04-30 18:35 50.26796 6.13205 22077 ft 409 kts
2026-04-30 18:35 50.29616 6.13243 22619 ft 412 kts
2026-04-30 18:35 50.32467 6.13730 23165 ft 413 kts 11°
2026-04-30 18:36 50.38169 6.15225 24169 ft 418 kts 12°
2026-04-30 18:36 50.41048 6.15991 24608 ft 421 kts 12°
2026-04-30 18:36 50.46867 6.17492 25490 ft 426 kts 12°
2026-04-30 18:37 50.49804 6.18235 25915 ft 429 kts 12°
2026-04-30 18:37 50.52759 6.18982 26334 ft 431 kts 12°
2026-04-30 18:37 50.55731 6.19734 26739 ft 434 kts 12°
2026-04-30 18:37 50.58723 6.20493 27139 ft 436 kts 12°
2026-04-30 18:38 50.61730 6.21258 27525 ft 439 kts 12°
2026-04-30 18:38 50.64753 6.22029 27921 ft 441 kts 12°
2026-04-30 18:38 50.67784 6.22811 28294 ft 442 kts 13°
2026-04-30 18:38 50.70742 6.24123 28634 ft 442 kts 24°
2026-04-30 18:39 50.73497 6.26256 28984 ft 441 kts 33°
2026-04-30 18:39 50.75980 6.29089 29332 ft 441 kts 43°
2026-04-30 18:39 50.78245 6.32372 29684 ft 443 kts 45°
2026-04-30 18:39 50.80485 6.35725 29997 ft 445 kts 45°
2026-04-30 18:40 50.82738 6.39108 30311 ft 448 kts 45°
2026-04-30 18:40 50.85010 6.42492 30634 ft 448 kts 44°
2026-04-30 18:40 50.87287 6.45854 31064 ft 446 kts 44°
2026-04-30 18:40 50.89553 6.49181 31522 ft 443 kts 44°
2026-04-30 18:41 50.91812 6.52494 31926 ft 442 kts 44°
2026-04-30 18:41 50.94071 6.55808 32270 ft 442 kts 44°
2026-04-30 18:41 50.96293 6.59075 32613 ft 441 kts 44°
2026-04-30 18:41 50.98543 6.62387 32999 ft 440 kts 44°
2026-04-30 18:42 51.00779 6.65683 33419 ft 438 kts 44°
2026-04-30 18:42 51.04774 6.72899 34118 ft 435 kts 54°
2026-04-30 18:42 51.06566 6.76792 34446 ft 434 kts 54°
2026-04-30 18:45 51.24502 7.14964 37267 ft 427 kts 53°
2026-04-30 18:45 51.26282 7.18775 37316 ft 430 kts 53°
2026-04-30 18:46 51.29862 7.26458 37337 ft 431 kts 53°
2026-04-30 18:46 51.33389 7.34047 37332 ft 424 kts 53°
2026-04-30 18:47 51.36897 7.41618 37347 ft 422 kts 53°
2026-04-30 18:47 51.40462 7.49100 37349 ft 421 kts 52°
2026-04-30 18:48 51.44056 7.56515 37347 ft 421 kts 52°
2026-04-30 18:48 51.47641 7.63946 37349 ft 421 kts 52°
2026-04-30 18:49 51.51222 7.71415 37353 ft 422 kts 52°
2026-04-30 18:49 51.54803 7.78916 37353 ft 424 kts 52°
2026-04-30 18:50 51.58362 7.86397 37354 ft 425 kts 52°
2026-04-30 18:50 51.61953 7.93965 37359 ft 426 kts 52°
2026-04-30 18:51 51.65545 8.01558 37368 ft 426 kts 52°
2026-04-30 18:51 51.69140 8.09180 37380 ft 427 kts 52°
2026-04-30 18:52 51.72737 8.16827 37380 ft 427 kts 52°
2026-04-30 18:52 51.76301 8.24428 37379 ft 427 kts 52°
2026-04-30 18:53 51.79878 8.32077 37380 ft 427 kts 52°
2026-04-30 18:53 51.83446 8.39732 37384 ft 426 kts 52°
2026-04-30 18:54 51.87005 8.47390 37384 ft 425 kts 52°
2026-04-30 18:54 51.90554 8.55049 37388 ft 424 kts 52°
2026-04-30 18:55 51.94086 8.62694 37391 ft 424 kts 52°
2026-04-30 18:55 51.99375 8.74186 37399 ft 423 kts 52°
2026-04-30 18:56 52.04646 8.85689 37403 ft 423 kts 52°
2026-04-30 18:57 52.09872 8.97147 37402 ft 422 kts 52°
2026-04-30 18:57 52.13369 9.04842 37405 ft 423 kts 52°
2026-04-30 18:58 52.18607 9.16410 37401 ft 423 kts 52°
2026-04-30 18:59 52.24547 9.26928 37407 ft 421 kts 34°
2026-04-30 19:00 52.31594 9.32314 37403 ft 422 kts 21°
2026-04-30 19:00 52.34352 9.33984 37426 ft 422 kts 21°
2026-04-30 19:01 52.45372 9.40728 37431 ft 423 kts 21°
2026-04-30 19:02 52.53629 9.45913 37425 ft 423 kts 21°
2026-04-30 19:03 52.64598 9.52851 37418 ft 424 kts 21°
2026-04-30 19:04 52.75619 9.59858 37431 ft 424 kts 21°
2026-04-30 19:05 52.86635 9.66898 37426 ft 425 kts 21°
2026-04-30 19:06 52.97640 9.73971 37433 ft 425 kts 21°
2026-04-30 19:06 53.05912 9.79313 37428 ft 425 kts 21°
2026-04-30 19:07 53.14179 9.84673 37433 ft 425 kts 21°
2026-04-30 19:08 53.25163 9.91830 37433 ft 424 kts 21°
2026-04-30 19:09 53.33407 9.97228 37430 ft 424 kts 21°
2026-04-30 19:09 53.38903 10.00839 37430 ft 424 kts 21°
2026-04-30 19:10 53.49889 10.08087 37429 ft 424 kts 21°
2026-04-30 19:11 53.58138 10.13556 37427 ft 424 kts 21°
2026-04-30 19:12 53.63605 10.17194 37426 ft 425 kts 21°
2026-04-30 19:12 53.69102 10.20862 37431 ft 425 kts 21°
2026-04-30 19:13 53.80034 10.28374 37439 ft 426 kts 21°
2026-04-30 19:14 53.85527 10.32176 37449 ft 426 kts 21°
2026-04-30 19:14 53.91021 10.35984 37451 ft 427 kts 21°
2026-04-30 19:15 53.96521 10.39804 37445 ft 427 kts 21°
2026-04-30 19:15 54.04776 10.45557 37444 ft 428 kts 21°
2026-04-30 19:16 54.10267 10.49398 37445 ft 428 kts 21°
2026-04-30 19:17 54.18530 10.55199 37442 ft 428 kts 21°
2026-04-30 19:17 54.26797 10.61028 37450 ft 428 kts 21°
2026-04-30 19:18 54.35055 10.66876 37442 ft 428 kts 21°
2026-04-30 19:19 54.40535 10.70771 37444 ft 428 kts 21°
2026-04-30 19:19 54.48794 10.76662 37437 ft 427 kts 21°
2026-04-30 19:20 54.54279 10.80590 37437 ft 427 kts 22°
2026-04-30 19:21 54.62510 10.86521 37444 ft 427 kts 22°
2026-04-30 19:22 54.73436 10.94681 37447 ft 428 kts 22°
2026-04-30 19:23 54.89843 11.07014 37445 ft 429 kts 22°
2026-04-30 19:24 54.98033 11.13205 37439 ft 430 kts 22°
2026-04-30 19:25 55.11749 11.23636 37436 ft 430 kts 22°
2026-04-30 19:26 55.22719 11.32035 37434 ft 430 kts 22°
2026-04-30 19:27 55.30920 11.38347 37442 ft 430 kts 23°
2026-04-30 19:28 55.39146 11.44707 37435 ft 430 kts 23°
2026-04-30 19:29 55.50106 11.53227 37433 ft 430 kts 23°
2026-04-30 19:30 55.61053 11.61789 37432 ft 430 kts 23°
2026-04-30 19:31 55.71962 11.70373 37433 ft 430 kts 23°
2026-04-30 19:31 55.80155 11.76855 37431 ft 429 kts 23°
2026-04-30 19:32 55.85620 11.81195 37437 ft 429 kts 23°
2026-04-30 19:32 55.91070 11.85537 37432 ft 429 kts 23°
2026-04-30 19:33 55.96519 11.89892 37438 ft 428 kts 23°
2026-04-30 19:33 56.01922 11.94222 37411 ft 429 kts 23°
2026-04-30 19:34 56.04665 11.96426 36912 ft 434 kts 23°
2026-04-30 19:34 56.07410 11.98635 36334 ft 431 kts 23°
2026-04-30 19:34 56.12882 12.03050 35041 ft 432 kts 23°
2026-04-30 19:35 56.15624 12.05267 34356 ft 432 kts 23°
2026-04-30 19:35 56.18373 12.07493 33645 ft 432 kts 23°
2026-04-30 19:35 56.21090 12.09697 33179 ft 426 kts 23°
2026-04-30 19:35 56.23777 12.11880 32697 ft 421 kts 23°
2026-04-30 19:36 56.26436 12.14043 32220 ft 417 kts 23°
2026-04-30 19:36 56.29094 12.16009 31732 ft 411 kts 16°
2026-04-30 19:36 56.34656 12.17419 31003 ft 397 kts 359°
2026-04-30 19:37 56.37395 12.16936 30592 ft 393 kts 352°
2026-04-30 19:37 56.40083 12.16153 30088 ft 390 kts 351°
2026-04-30 19:37 56.42709 12.15353 29628 ft 386 kts 351°
2026-04-30 19:37 56.45380 12.14557 29142 ft 382 kts 352°
2026-04-30 19:38 56.47961 12.13816 28705 ft 378 kts 352°
2026-04-30 19:38 56.50549 12.13090 28252 ft 375 kts 352°
2026-04-30 19:38 56.53119 12.12372 27795 ft 372 kts 352°
2026-04-30 19:38 56.55663 12.11662 27437 ft 367 kts 352°
2026-04-30 19:39 56.58180 12.10958 27012 ft 365 kts 352°
2026-04-30 19:39 56.60686 12.10257 26549 ft 363 kts 352°
2026-04-30 19:39 56.63174 12.09560 26120 ft 361 kts 352°
2026-04-30 19:39 56.65655 12.08863 25683 ft 359 kts 352°
2026-04-30 19:40 56.68121 12.08170 25253 ft 358 kts 352°
2026-04-30 19:40 56.70587 12.07475 24825 ft 357 kts 352°
2026-04-30 19:40 56.73040 12.06784 24398 ft 356 kts 352°
2026-04-30 19:40 56.75481 12.06094 23966 ft 355 kts 352°
2026-04-30 19:41 56.77920 12.05404 23457 ft 354 kts 352°
2026-04-30 19:41 56.80318 12.04725 23007 ft 352 kts 352°
2026-04-30 19:41 56.82727 12.04042 22563 ft 350 kts 352°
2026-04-30 19:41 56.85130 12.03360 22148 ft 347 kts 352°
2026-04-30 19:42 56.87515 12.02682 21708 ft 346 kts 352°
2026-04-30 19:42 56.89885 12.02008 21280 ft 344 kts 352°
2026-04-30 19:42 56.92251 12.01334 20852 ft 343 kts 352°
2026-04-30 19:42 56.94608 12.00661 20388 ft 343 kts 352°
2026-04-30 19:43 56.96967 11.99987 19960 ft 342 kts 352°
2026-04-30 19:43 56.99316 11.99316 19527 ft 341 kts 352°
2026-04-30 19:43 57.01636 11.98651 19113 ft 341 kts 352°
2026-04-30 19:44 57.06333 11.97642 18167 ft 340 kts 359°
2026-04-30 19:44 57.08700 11.97617 17711 ft 339 kts
2026-04-30 19:44 57.11047 11.97678 17273 ft 337 kts
2026-04-30 19:44 57.13391 11.97742 16859 ft 336 kts
2026-04-30 19:45 57.15725 11.97788 16440 ft 334 kts
2026-04-30 19:45 57.18045 11.97813 16028 ft 333 kts
2026-04-30 19:45 57.20361 11.97824 15617 ft 332 kts
2026-04-30 19:45 57.22667 11.97826 15208 ft 331 kts
2026-04-30 19:46 57.24971 11.97822 14803 ft 330 kts
2026-04-30 19:46 57.27268 11.97815 14393 ft 330 kts
2026-04-30 19:46 57.29565 11.97806 13957 ft 330 kts
2026-04-30 19:46 57.31857 11.97797 13506 ft 329 kts
2026-04-30 19:47 57.34117 11.97788 13087 ft 328 kts
2026-04-30 19:47 57.35655 11.97781 12803 ft 327 kts
2026-04-30 19:47 57.38667 11.97768 12249 ft 326 kts
2026-04-30 19:47 57.40939 11.97758 11839 ft 325 kts
2026-04-30 19:48 57.43200 11.97749 11428 ft 325 kts
2026-04-30 19:48 57.45458 11.97739 11017 ft 324 kts
2026-04-30 19:48 57.47690 11.97729 10842 ft 316 kts 360°
2026-04-30 19:48 57.49139 11.97723 10716 ft 311 kts 360°
2026-04-30 19:49 57.51281 11.97713 10590 ft 303 kts 360°
2026-04-30 19:49 57.55394 11.97898 10350 ft 287 kts 12°
2026-04-30 19:49 57.57209 11.99226 10329 ft 277 kts 26°
2026-04-30 19:50 57.58960 12.00957 9656 ft 290 kts 27°
2026-04-30 19:50 57.60748 12.02750 9240 ft 293 kts 27°
2026-04-30 19:50 57.62548 12.04537 8902 ft 293 kts 27°
2026-04-30 19:50 57.64354 12.06317 8569 ft 293 kts 27°
2026-04-30 19:51 57.66154 12.08088 8264 ft 292 kts 27°
2026-04-30 19:51 57.67899 12.09820 8204 ft 282 kts 27°
2026-04-30 19:51 57.69608 12.11527 8134 ft 274 kts 27°
2026-04-30 19:51 57.71258 12.13185 8075 ft 265 kts 27°
2026-04-30 19:52 57.72870 12.14812 7920 ft 261 kts 27°
2026-04-30 19:52 57.74465 12.16428 7705 ft 260 kts 27°
2026-04-30 19:52 57.76057 12.18048 7485 ft 259 kts 27°
2026-04-30 19:52 57.77626 12.19654 7176 ft 254 kts 27°
2026-04-30 19:53 57.79174 12.21249 6716 ft 254 kts 27°
2026-04-30 19:53 57.80701 12.22834 6213 ft 254 kts 27°
2026-04-30 19:53 57.82265 12.24472 5722 ft 254 kts 27°
2026-04-30 19:53 57.83708 12.26376 5247 ft 257 kts 46°
2026-04-30 19:54 57.84486 12.29277 5070 ft 250 kts 77°
2026-04-30 19:54 57.84384 12.32447 4948 ft 240 kts 107°
2026-04-30 19:54 57.83699 12.35257 4675 ft 236 kts 123°
2026-04-30 19:54 57.82591 12.37499 4304 ft 233 kts 146°
2026-04-30 19:55 57.81117 12.38564 3849 ft 227 kts 172°
2026-04-30 19:55 57.79611 12.38968 3700 ft 209 kts 177°
2026-04-30 19:55 57.78230 12.38573 3329 ft 199 kts 205°
2026-04-30 19:55 57.76985 12.37650 3072 ft 187 kts 206°
2026-04-30 19:56 57.75819 12.36669 2625 ft 181 kts 210°
2026-04-30 19:56 57.74687 12.35642 2209 ft 179 kts 211°
2026-04-30 19:56 57.73584 12.34632 1891 ft 171 kts 211°
2026-04-30 19:56 57.72558 12.33699 1661 ft 158 kts 210°
2026-04-30 19:57 57.71597 12.32823 1457 ft 152 kts 210°
2026-04-30 19:57 57.70670 12.31977 1242 ft 146 kts 209°
2026-04-30 19:57 57.69777 12.31165 1034 ft 140 kts 208°
2026-04-30 19:57 57.68901 12.30366 839 ft 139 kts 207°
2026-04-30 19:58 57.68029 12.29571 644 ft 140 kts 207°
2026-04-30 19:58 57.67160 12.28773 514 ft 137 kts 207°
2026-04-30 19:58 57.66464 12.28142 503 ft 67 kts 205°
2026-04-30 19:58 57.66207 12.27926 497 ft 28 kts 185°
2026-04-30 19:59 57.66112 12.28127 499 ft 14 kts 81°
2026-04-30 19:59 57.66122 12.28166 499 ft 3 kts 53°
2026-04-30 19:59 57.66164 12.28218 500 ft 5 kts 25°
2026-04-30 20:00 57.66228 12.28273 501 ft 13 kts 25°
2026-04-30 20:00 57.66307 12.28342 501 ft 13 kts 25°
2026-04-30 20:00 57.66397 12.28427 502 ft 16 kts 27°
2026-04-30 20:00 57.66500 12.28525 503 ft 17 kts 26°
2026-04-30 20:01 57.66700 12.28704 505 ft 15 kts 24°
2026-04-30 20:01 57.66794 12.28789 506 ft 15 kts 26°
2026-04-30 20:01 57.66908 12.28895 508 ft 21 kts 26°
2026-04-30 20:02 57.67163 12.29125 510 ft 20 kts 25°
2026-04-30 20:02 57.67292 12.29246 512 ft 21 kts 27°
2026-04-30 20:03 57.67395 12.29534 513 ft 11 kts 114°
2026-04-30 20:03 57.67354 12.29657 513 ft 11 kts 135°
2026-04-30 20:03 57.67312 12.29775 513 ft 11 kts 116°
2026-04-30 20:03 57.67308 12.29789 513 ft 0 kts 116°